EHI
0 0 0 0 0 0 0 0 0 0 0 0 0 0 0 0 0 0 0 0 0 0 0 0 0 0 0 0 0 0 0 0 0 0 0 0 0 0 0 0 0 0 0
0 0 0 0 0 0 0 0 0 0 0 0 0 0 0 0 0 0 0 0 0 0 0 0 0 0 0 0 0 0 0 0 0 0 0 0 0 0 0 0 0 0 0
0 0 0 0 0 0 0 0 0 0 0 0 0 0 0 0 0 0 0 0 0 0 0 0 0 0 0 0 0 0 0 0 0 0 0 0 0 0 0 0 0 0 0
0 0 0 0 0 0 0 0 0 0 0 0 0 0 0 0 0 0 0 0 0 0 0 0 0 0 0 0 0 0 0 0 0 0 0 0 0 0 0 0 0 0 0
0 0 0 0 0 0 0 0 0 0 0 0 0 0 0 0 0 0 0 0 0 0 0 0 0 0 0 0 0 0 0 0 0 0 0 0 0 0 0 0 0 0 0
0 0 0 0 0 0 0 0 0 0 0 0 0 0 0 0 0 0 0 0 0 0 0 0 0 0 0 0 0 0 0 0 0 0 0 0 0 0 0 0 0 0 0
0 0 0 0 0 0 0 0 0 0 0 0 0 0 0 0 0 0 0 0 0 0 0 0 0 0 0 0 0 0 0 0 0 0 0 0 0 0 0 0 0 0 0
0 0 0 0 0 0 0 0 0 0 0 0 0 0 0 0 0 0 0 0 0 0 0 0 0 0 0 0 0 0 0 0 0 0 0 0 0 0 0 0 0 0 0
0 0 0 0 0 0 0 0 0 0 0 0 0 0 0 0 0 0 0 0 0 0 0 0 0 0 0 0 0 0 0 0 0 0 0 0 0 0 0 0 0 0 0
0 0 0 0 0 0 0 0 0 0 0 0 0 0 0 0 0 0 0 0 0 0 0 0 0 0 0 0 0 0 0 0 0 0 0 0 0 0 0 0 0 0 0
0 0 0 0 0 0 0 0 0 0 0 0 0 0 0 0 0 0 0 0 0 0 0 0 0 0 0 0 0 0 0 0 0 0 0 0 0 0 0 0 0 0 0
1 1 0 0 0 0 0 0 0 0 0 0 0 0 0 0 0 0 0 0 0 0 0 0 0 0 0 0 0 0 0 0 0 0 0 0 0 0 0 0 0 0 0
2 1 0 0 0 0 0 0 0 0 0 0 0 0 0 0 0 0 0 0 0 0 0 0 0 0 0 0 0 0 0 0 0 0 0 0 0 0 0 0 0 0 0
1 1 0 0 0 0 0 0 0 0 0 0 0 0 0 0 0 0 0 0 0 0 0 0 0 0 0 0 0 0 0 0 0 0 0 0 0 0 0 0 0 0 0
0 0 0 0 0 0 0 0 0 0 0 0 0 0 0 0 0 0 0 0 0 0 0 0 0 0 0 0 0 0 0 0 0 0 0 0 0 0 0 0 0 0 0
0 0 0 0 0 0 0 0 0 0 0 0 0 0 0 0 0 0 0 0 0 0 0 0 0 0 0 0 0 0 0 0 0 0 0 0 0 0 0 0 0 0 0
0 0 0 0 0 0 0 0 0 0 0 0 0 0 0 0 0 0 0 0 0 0 0 0 0 0 0 0 0 0 0 0 0 0 0 0 0 0 0 0 0 0 0
0 0 0 0 0 0 0 0 0 0 0 0 0 0 0 0 0 0 0 0 0 0 0 0 0 0 0 0 0 0 0 0 0 0 0 0 0 0 0 0 0 0 0
0 0 0 0 0 0 0 0 0 0 0 0 0 0 0 0 0 0 0 0 0 0 0 0 0 0 0 0 0 0 0 0 0 0 0 0 0 0 0 0 0 0 0
0 0 0 0 0 0 0 0 0 0 0 0 0 0 0 0 0 0 0 0 0 0 0 0 0 0 0 0 0 0 0 0 0 0 0 0 0 0 0 0 0 0 0
0 0 0 0 0 0 0 0 0 0 0 0 0 0 0 0 0 0 0 0 0 0 0 0 0 0 0 0 0 0 0 0 0 0 0 0 0 0 0 0 0 0 0
0 0 0 0 0 0 0 0 0 0 0 0 0 0 0 0 0 0 0 0 0 0 0 0 0 0 0 0 0 0 0 0 0 0 0 0 0 0 0 0 0 0 0
0 0 0 0 0 0 0 0 0 0 0 0 0 0 0 0 0 0 0 0 0 0 0 0 0 0 0 0 0 0 0 0 0 0 0 0 0 0 0 0 0 0 0
0 0 0 0 0 0 0 0 0 0 0 0 0 0 0 0 0 0 0 0 0 0 0 0 0 0 0 0 0 0 0 0 0 0 0 0 0 0 0 0 0 0 0
0 0 0 0 0 0 0 0 0 0 0 0 0 0 0 0 0 0 0 0 0 0 0 0 0 0 0 0 0 0 0 0 0 0 0 0 0 0 0 0 0 0 0
0 0 0 0 0 0 0 0 0 0 0 0 0 0 0 0 0 0 0 0 0 0 0 0 0 0 0 0 0 0 0 0 0 0 0 0 0 0 0 0 0 0 0
Wind_Speed
5 4 5 3 3 3 3 3 2 2 2 2 2 3 3 3 3 3 3 4 4 4 4 4 4 4 3 4 3 3 3 3 2 2 2 3 5 5 5 4 4 3 3
5 5 5 4 3 3 3 2 2 2 2 2 3 4 4 4 4 3 3 4 4 4 4 4 4 4 4 4 3 4 3 3 3 3 3 3 4 4 4 5 5 5 4
5 5 5 5 4 3 3 2 2 2 2 3 4 4 4 4 4 3 3 3 3 4 4 5 5 5 5 4 4 4 3 4 3 2 3 3 3 4 4 5 6 4 6
6 5 5 5 5 4 4 3 2 2 2 3 3 4 4 5 5 5 4 3 3 3 4 4 4 5 5 5 4 4 4 4 4 3 3 3 3 3 3 3 4 4 5
7 6 5 5 5 4 4 3 2 2 3 3 3 4 4 4 5 5 4 4 3 3 2 3 4 5 6 4 3 3 4 3 3 3 3 3 3 4 3 3 4 4 5
8 6 5 5 5 5 4 3 3 2 3 3 3 4 4 4 6 8 6 4 3 3 3 2 3 4 4 4 5 4 3 3 2 2 2 3 4 4 3 4 4 4 4
8 7 7 6 6 5 5 4 3 3 3 3 2 3 3 3 5 6 7 4 3 2 3 3 3 4 4 3 5 5 4 4 4 2 2 3 4 4 4 4 4 4 5
8 8 7 7 6 5 5 4 3 3 3 2 2 2 3 3 3 3 5 3 2 1 2 2 2 2 4 4 4 4 4 3 4 2 2 4 4 4 4 4 4 5 5
9 9 8 8 7 6 5 4 3 3 3 2 2 2 2 2 2 2 2 2 1 1 1 2 2 3 5 6 4 4 4 5 6 7 7 7 9 9 7 3 3 3 5
9 9 8 8 8 7 6 4 3 3 3 2 2 2 2 2 3 2 1 1 2 1 1 2 3 3 3 4 2 3 4 5 6 7 7 7 6 7 7 3 2 3 4
8 8 8 8 7 7 5 4 4 3 3 2 2 2 2 3 4 3 2 0 1 2 1 1 1 2 3 3 3 2 5 6 5 5 5 5 4 3 3 3 2 2 3
9 8 8 8 7 7 6 5 4 4 4 3 3 2 2 3 4 4 4 3 1 1 1 1 1 3 5 7 5 7 10 9 4 4 4 4 3 3 3 3 4 4 4
9 8 8 8 6 6 6 5 4 4 4 3 3 3 2 2 3 6 6 5 4 2 2 4 5 7 7 6 8 10 8 4 3 3 4 4 3 3 3 3 4 4 5
10 9 8 8 7 7 5 5 4 4 4 3 3 3 2 2 2 2 2 3 4 4 3 4 7 8 7 8 8 6 4 4 4 4 3 4 3 3 3 3 3 3 4
10 9 8 7 7 6 5 5 5 4 5 5 4 3 3 3 3 4 3 2 2 2 2 2 3 3 3 3 3 3 3 3 3 3 3 4 4 4 4 3 3 4 4
9 8 6 6 5 5 5 4 4 5 7 8 7 5 3 5 5 5 5 4 4 4 2 2 3 4 4 4 4 3 3 3 3 3 3 4 4 4 4 4 4 4 5
8 8 6 6 6 6 5 5 4 3 5 6 8 8 7 7 7 7 6 6 6 4 3 4 5 5 4 4 4 4 4 4 3 3 4 4 4 4 4 5 5 5 5
8 8 7 6 6 6 6 5 5 5 4 4 6 10 10 10 10 9 8 4 4 4 4 5 5 5 4 4 4 4 4 4 3 4 4 4 4 4 5 5 5 6 6
6 5 6 5 5 5 5 5 5 6 5 4 3 5 10 11 11 11 8 5 5 5 5 5 5 5 4 4 4 4 4 4 4 4 4 5 4 5 5 5 6 9 8
5 8 7 5 5 5 5 5 5 5 5 5 5 5 5 5 4 5 6 6 6 6 6 6 5 5 5 5 4 4 4 4 5 4 4 5 4 4 6 7 7 7 6
4 6 8 6 5 5 5 5 5 5 5 5 5 6 8 5 6 6 6 6 7 7 6 6 5 5 5 4 4 5 5 5 4 5 4 4 4 5 5 6 7 7 7
4 4 5 5 4 4 4 4 4 5 5 5 3 4 8 5 5 5 5 5 6 6 6 5 5 5 4 4 5 5 5 5 5 4 4 4 5 5 5 6 7 7 7
4 4 4 4 4 5 5 4 4 4 4 4 4 3 4 4 5 5 5 5 4 4 4 4 4 4 4 4 4 4 5 5 4 4 4 5 5 5 5 7 9 10 10
4 5 5 5 4 4 5 5 4 5 5 5 4 4 4 5 4 5 5 4 4 4 4 4 4 6 7 5 4 4 4 4 4 4 5 5 6 6 7 8 9 11 11
4 4 5 5 5 5 5 5 5 5 4 4 4 4 4 4 4 4 4 4 4 4 5 5 4 5 7 7 6 5 6 7 7 5 4 5 7 8 8 10 10 10 11
4 5 4 4 4 4 4 5 5 4 4 4 4 3 3 4 4 4 4 4 4 4 5 4 5 6 6 5 6 7 7 8 8 8 5 5 7 8 9 9 12 12 12
Wind_Direction
158 140 129 128 123 114 97 87 76 77 73 65 61 65 69 75 74 66 46 44 37 33 43 60 49 34 26 21 18 26 24 33 31 346 3 11 18 12 0 354 359 359 349
150 136 133 136 130 124 115 110 99 83 69 64 67 63 61 56 60 68 58 57 51 41 35 43 42 41 32 21 23 24 18 23 36 357 343 359 6 0 -0 358 359 358 346
147 146 144 141 138 134 126 119 106 91 79 62 68 68 63 55 52 48 53 61 62 57 49 45 38 39 29 20 25 23 13 13 12 4 342 347 349 355 2 354 355 348 345
151 153 154 149 143 133 118 113 101 93 87 75 72 72 66 55 46 32 29 41 52 60 63 61 51 50 35 18 24 17 15 10 1 2 348 340 339 338 4 354 347 343 336
157 161 162 145 134 124 116 112 94 84 86 81 77 72 69 66 47 34 17 22 35 40 55 80 79 70 54 35 23 11 13 7 358 359 347 342 340 350 350 340 341 327 321
163 163 146 137 132 131 133 129 112 91 77 70 72 75 68 61 56 44 26 6 9 20 22 47 84 71 49 15 358 0 4 3 352 345 335 335 331 336 337 340 334 335 320
162 152 145 143 140 141 140 124 122 118 98 88 86 89 89 78 67 40 18 360 354 13 18 21 34 52 45 21 348 337 328 322 319 310 323 313 316 322 330 328 320 312 297
159 152 151 147 145 143 138 142 152 140 126 125 117 117 114 109 83 42 7 344 333 3 20 33 52 49 40 29 4 356 340 330 316 313 290 292 301 302 301 296 292 302 300
160 158 157 154 151 149 151 157 156 142 141 148 154 150 138 140 135 87 13 325 318 328 0 38 57 69 44 34 16 345 332 323 322 324 311 304 304 305 304 315 319 320 311
161 159 157 153 152 157 160 158 149 146 152 159 164 171 162 148 152 129 39 319 321 327 9 53 62 72 44 30 11 336 320 311 322 324 318 313 306 300 302 283 272 296 303
153 151 151 151 154 156 155 153 154 157 162 176 176 186 180 160 158 156 142 109 322 330 353 6 4 10 354 335 322 287 282 296 302 301 300 300 300 303 305 301 297 283 291
147 148 152 153 161 159 155 163 168 165 172 187 193 204 198 170 165 178 184 202 257 314 308 313 311 322 317 307 296 284 289 298 290 288 293 295 297 299 302 307 305 299 285
149 153 156 158 160 157 161 170 173 174 181 195 195 199 206 186 180 188 200 218 238 242 260 277 291 298 300 292 277 280 285 277 274 275 279 281 281 284 292 300 302 299 298
157 162 164 166 167 168 171 176 178 185 189 194 198 203 202 193 183 185 204 223 240 252 265 281 289 286 279 276 278 276 260 248 250 256 265 272 280 288 287 284 288 294 299
165 169 173 173 172 174 175 181 187 192 188 188 199 197 193 205 207 187 187 207 217 235 276 283 281 282 279 277 279 277 273 275 277 274 275 283 285 288 288 286 281 288 291
173 176 176 173 172 173 172 180 193 191 187 190 193 195 202 200 199 204 212 225 240 250 249 255 263 265 268 272 275 279 279 275 270 272 276 279 283 286 289 291 288 288 288
180 176 173 176 178 179 179 182 189 210 215 212 209 207 208 207 210 216 223 236 248 239 233 246 252 254 256 259 260 263 267 268 269 272 274 276 278 282 286 289 289 288 287
182 181 177 179 181 184 187 190 190 191 203 223 224 220 218 218 222 225 228 235 249 232 227 239 247 250 251 254 257 261 267 274 274 273 275 277 275 277 280 282 283 284 287
184 179 177 177 181 187 189 192 198 203 206 206 201 215 219 223 228 231 224 222 233 239 237 239 243 247 248 250 252 254 258 262 268 271 273 273 274 277 279 279 281 284 285
187 182 178 180 185 191 193 197 202 206 209 209 207 207 197 201 216 225 221 223 232 239 241 241 241 242 243 245 247 250 255 259 264 265 270 274 275 276 281 285 285 285 283
182 183 184 188 194 198 198 202 205 209 214 217 215 206 194 200 213 219 219 221 226 233 238 239 240 241 242 243 245 251 257 259 260 263 267 271 276 279 280 282 286 284 283
185 189 191 195 197 200 202 205 208 212 217 222 221 212 206 208 215 223 226 228 228 227 228 231 235 234 231 233 239 247 254 262 265 268 271 275 276 277 280 283 287 288 286
188 195 200 203 200 204 208 210 210 213 217 219 217 212 211 220 224 228 232 234 233 233 231 230 236 240 240 237 237 240 249 255 254 259 271 275 276 279 280 282 285 289 288
197 202 203 203 204 206 210 213 214 216 217 219 220 220 219 224 229 233 235 236 235 234 232 231 236 245 250 252 247 245 247 252 257 261 269 272 278 281 283 283 283 283 285
202 206 207 207 207 208 213 216 219 222 222 221 221 223 226 227 232 235 235 237 241 242 244 243 241 246 254 259 260 259 263 267 267 263 262 266 273 277 280 282 282 284 283
208 210 213 211 210 211 215 219 223 225 225 225 224 224 226 229 233 236 236 237 240 243 245 244 245 251 258 261 265 270 274 271 269 266 264 269 272 274 277 278 281 282 282